CW1569 Weather Reports


time (UTC)temp
F
wind
direction
speed
knots
gust
knots
rain 1hr
in
rain 24hr
in
rain mn
in
humidity
%
barometer
mb
20260506001834 55 360 3.5 11.3 0.00 0.00 0.00 38 1005.3
20260506001327 55 360 5.2 11.3 0.00 0.00 0.00 36 1005.4
20260506000834 55 254 5.2 9.6 0.00 0.00 0.00 36 1005.3
20260506000324 55 360 3.5 11.3 0.00 0.00 0.00 37 1005.3
20260505235826 55 360 5.2 11.3 0.00 0.00 0.00 36 1005.3
20260505235336 55 360 5.2 11.3 0.00 0.00 0.00 36 1005.2
20260505234827 55 360 6.1 11.3 0.00 0.00 0.00 36 1005.3
20260505234338 55 360 3.5 13.0 0.00 0.00 0.00 38 1005.2
20260505233826 55 360 4.3 13.0 0.00 0.00 0.00 37 1005.3
20260505233335 55 360 5.2 11.3 0.00 0.00 0.00 37 1005.2
20260505232845 55 360 5.2 9.6 0.00 0.00 0.00 37 1005.3
20260505232356 55 360 5.2 9.6 0.00 0.00 0.00 37 1005.3
20260505231824 55 360 2.6 7.8 0.00 0.00 0.00 37 1005.3
20260505231402 55 259 1.7 8.7 0.00 0.00 0.00 38 1005.4
20260505230849 55 360 5.2 9.6 0.00 0.00 0.00 37 1005.4
20260505230339 55 360 5.2 9.6 0.00 0.00 0.00 37 1005.5
20260505225827 55 360 6.1 9.6 0.00 0.00 0.00 37 1005.5
20260505225335 55 360 4.3 9.6 0.00 0.00 0.00 36 1005.6
20260505224826 55 232 4.3 9.6 0.00 0.00 0.00 36 1005.6
20260505224338 56 360 4.3 8.7 0.00 0.00 0.00 37 1005.5
20260505223826 56 360 2.6 9.6 0.00 0.00 0.00 37 1005.6
20260505223357 56 360 3.5 9.6 0.00 0.00 0.00 36 1005.6
20260505222825 56 360 1.7 9.6 0.00 0.00 0.00 36 1005.6
20260505222336 56 360 4.3 11.3 0.00 0.00 0.00 36 1005.6
20260505221846 56 360 5.2 11.3 0.00 0.00 0.00 36 1005.5
20260505221339 56 360 6.1 8.7 0.00 0.00 0.00 36 1005.5
20260505220828 56 360 3.5 10.4 0.00 0.00 0.00 35 1005.5
20260505220339 56 360 6.1 12.2 0.00 0.00 0.00 35 1005.6
20260505215848 56 360 4.3 12.2 0.00 0.00 0.00 36 1005.6
20260505215335 56 360 3.5 9.6 0.00 0.00 0.00 36 1005.7
20260505214823 56 360 3.5 10.4 0.00 0.00 0.00 35 1005.6
20260505214334 56 360 5.2 12.2 0.00 0.00 0.00 35 1005.5
20260505213841 56 360 7.0 12.2 0.00 0.00 0.00 34 1005.6
20260505213352 56 360 5.2 10.4 0.00 0.00 0.00 35 1005.6
20260505212840 56 360 5.2 10.4 0.00 0.00 0.00 33 1005.5
20260505212346 56 236 2.6 9.6 0.00 0.00 0.00 35 1005.5
20260505211836 56 360 5.2 12.2 0.00 0.00 0.00 32 1005.5
20260505211328 57 360 7.8 12.2 0.00 0.00 0.00 33 1005.6
20260505210831 57 5 4.3 11.3 0.00 0.00 0.00 32 1005.6
20260505210335 57 25 7.0 11.3 0.00 0.00 0.00 33 1005.6
20260505205845 57 360 6.1 11.3 0.00 0.00 0.00 35 1005.5
20260505205333 56 360 3.5 13.0 0.00 0.00 0.00 34 1005.5
20260505204823 56 360 5.2 13.0 0.00 0.00 0.00 35 1005.5
20260505204334 56 360 5.2 12.2 0.00 0.00 0.00 34 1005.5
20260505203823 56 360 6.1 9.6 0.00 0.00 0.00 34 1005.7
20260505203333 56 360 4.3 10.4 0.00 0.00 0.00 35 1005.8
20260505202824 56 360 4.3 10.4 0.00 0.00 0.00 34 1006.0
20260505202332 56 360 4.3 10.4 0.00 0.00 0.00 35 1005.8
20260505201841 56 242 6.1 10.4 0.00 0.00 0.00 34 1005.7
20260505201352 56 360 5.2 11.3 0.00 0.00 0.00 34 1005.7
20260505200834 56 360 7.0 11.3 0.00 0.00 0.00 32 1005.8
20260505200339 56 360 0.9 13.0 0.00 0.00 0.00 31 1005.8
20260505195826 57 360 7.8 13.0 0.00 0.00 0.00 30 1005.9
20260505195335 57 360 5.2 10.4 0.00 0.00 0.00 31 1005.8
20260505194825 57 360 7.0 10.4 0.00 0.00 0.00 33 1005.9
20260505194336 56 360 3.5 10.4 0.00 0.00 0.00 32 1006.0
20260505193824 56 360 6.1 16.5 0.00 0.00 0.00 32 1006.0
20260505193400 56 360 7.8 16.5 0.00 0.00 0.00 32 1005.8
20260505192847 56 360 6.1 13.9 0.00 0.00 0.00 34 1006.0
20260505192356 56 360 7.0 14.8 0.00 0.00 0.00 32 1006.1
20260505191842 56 360 6.1 14.8 0.00 0.00 0.00 33 1006.2
20260505191348 56 360 2.6 14.8 0.00 0.00 0.00 34 1006.2
20260505190836 56 360 8.7 14.8 0.00 0.00 0.00 31 1006.1
20260505190324 56 360 6.1 11.3 0.00 0.00 0.00 32 1006.1
20260505185832 56 360 3.5 11.3 0.00 0.00 0.00 35 1006.0
20260505185343 56 360 6.1 18.2 0.00 0.00 0.00 33 1006.0
20260505184832 56 360 6.1 18.2 0.00 0.00 0.00 31 1005.9
20260505184344 57 360 9.6 14.8 0.00 0.00 0.00 32 1005.9
20260505183829 57 360 3.5 10.4 0.00 0.00 0.00 34 1005.9
20260505183340 56 360 3.5 9.6 0.00 0.00 0.00 35 1005.9
20260505182851 56 360 4.3 13.0 0.00 0.00 0.00 33 1005.9
20260505182357 56 360 7.8 13.0 0.00 0.00 0.00 33 1005.9
20260505181839 56 360 7.0 13.0 0.00 0.00 0.00 33 1005.9
20260505181328 56 360 5.2 13.0 0.00 0.00 0.00 35 1005.9
20260505180837 56 360 6.1 15.6 0.00 0.00 0.00 32 1005.8
20260505180348 56 360 7.8 15.6 0.00 0.00 0.00 33 1005.7
20260505175854 56 360 7.8 13.0 0.00 0.00 0.00 33 1005.6
20260505175340 56 360 6.1 14.8 0.00 0.00 0.00 34 1005.6
20260505174846 55 360 7.0 12.2 0.00 0.00 0.00 36 1005.5
20260505174357 55 360 5.2 12.2 0.00 0.00 0.00 37 1005.6
20260505173824 55 360 6.1 12.2 0.00 0.00 0.00 35 1005.6
20260505173330 55 360 5.2 12.2 0.00 0.00 0.00 36 1005.5
20260505172822 54 360 3.5 12.2 0.00 0.00 0.00 39 1005.6
20260505172328 54 360 4.3 13.9 0.00 0.00 0.00 37 1005.5
20260505171837 54 360 5.2 13.9 0.00 0.00 0.00 37 1005.6
20260505171328 54 360 7.0 12.2 0.00 0.00 0.00 37 1005.5
20260505170835 54 360 4.3 11.3 0.00 0.00 0.00 38 1005.7
20260505170325 54 360 5.2 13.0 0.00 0.00 0.00 40 1005.8
20260505165836 54 360 7.8 13.0 0.00 0.00 0.00 38 1005.8
20260505165325 53 360 7.0 12.2 0.00 0.00 0.00 40 1005.7
20260505164834 53 360 7.8 13.0 0.00 0.00 0.00 39 1005.7
20260505164325 53 360 5.2 13.0 0.00 0.00 0.00 39 1005.5
20260505163831 53 360 5.2 8.7 0.00 0.00 0.00 40 1005.5
20260505163340 53 360 5.2 11.3 0.00 0.00 0.00 39 1005.5
20260505162831 53 196 6.1 11.3 0.00 0.00 0.00 39 1005.7
20260505162341 53 360 6.1 8.7 0.00 0.00 0.00 40 1005.4
20260505161848 53 360 5.2 9.6 0.00 0.00 0.00 42 1005.6
20260505161339 52 360 5.2 9.6 0.00 0.00 0.00 42 1005.6
20260505160826 52 360 2.6 7.8 0.00 0.00 0.00 44 1005.6
20260505160334 52 360 4.3 8.7 0.00 0.00 0.00 44 1005.7
20260505153338 51 360 6.1 11.3 0.00 0.00 0.00 43 1005.5
20260505152826 51 360 6.1 9.6 0.00 0.00 0.00 43 1005.6
20260505152335 51 11 4.3 9.6 0.00 0.00 0.00 43 1005.6
20260505151840 51 360 4.3 9.6 0.00 0.00 0.00 44 1005.7
20260505151332 51 360 4.3 9.6 0.00 0.00 0.00 44 1005.7
20260505150821 51 360 4.3 10.4 0.00 0.00 0.00 45 1005.7
20260505150332 51 360 6.1 10.4 0.00 0.00 0.00 44 1005.6
20260505140331 50 360 1.7 9.6 0.00 0.00 0.00 47 1006.0
20260505124843 49 360 2.6 6.1 0.00 0.00 0.00 51 1005.6
20260505124354 49 27 3.5 6.1 0.00 0.00 0.00 50 1005.4
20260505123842 48 360 2.6 6.1 0.00 0.00 0.00 51 1005.3
20260505123358 48 360 3.5 7.0 0.00 0.00 0.00 51 1005.4
20260505122848 48 360 1.7 8.7 0.00 0.00 0.00 51 1005.5
20260505122338 48 360 2.6 8.7 0.00 0.00 0.00 51 1005.7
20260505121828 48 360 4.3 7.0 0.00 0.00 0.00 51 1005.7
20260505121339 48 11 1.7 7.0 0.00 0.00 0.00 50 1005.2
20260505120845 48 5 2.6 7.8 0.00 0.00 0.00 50 1005.5
20260505120355 48 360 5.2 7.8 0.00 0.00 0.00 50 1005.7
20260505115823 48 360 3.5 7.8 0.00 0.00 0.00 50 1005.8
20260505115332 48 360 3.5 7.8 0.00 0.00 0.00 51 1005.6
20260505114822 48 360 3.5 6.1 0.00 0.00 0.00 50 1005.4
20260505114331 48 360 4.3 6.1 0.00 0.00 0.00 51 1005.0
20260505113838 48 360 1.7 7.8 0.00 0.00 0.00 51 1004.9
20260505113328 48 16 2.6 7.8 0.00 0.00 0.00 50 1004.3
20260505112838 48 360 5.2 7.8 0.00 0.00 0.00 50 1004.2
20260505112328 48 360 2.6 7.0 0.00 0.00 0.00 51 1004.8
20260505111835 48 360 2.6 7.0 0.00 0.00 0.00 51 1003.6
20260505111328 48 360 3.5 7.0 0.00 0.00 0.00 51 1003.7
20260505110834 49 360 3.5 7.0 0.00 0.00 0.00 51 1003.7
20260505110344 49 32 2.6 5.2 0.00 0.00 0.00 52 1004.1
20260505101841 49 360 3.5 13.9 0.00 0.00 0.00 49 1003.6
20260505101347 49 17 7.8 10.4 0.00 0.00 0.00 49 1003.5
20260505100835 50 360 4.3 11.3 0.00 0.00 0.00 49 1003.2
20260505100325 50 360 3.5 13.9 0.00 0.00 0.00 49 1003.1
20260505095834 50 31 6.1 13.9 0.00 0.00 0.00 49 1002.9
20260505095340 50 360 6.1 9.6 0.00 0.00 0.00 50 1003.4
20260505094830 50 360 4.3 12.2 0.00 0.00 0.00 50 1003.3
20260505094341 50 360 4.3 12.2 0.00 0.00 0.00 50 1003.4
20260505093827 50 360 4.3 12.2 0.00 0.00 0.00 50 1003.1
20260505093336 50 360 6.1 12.2 0.00 0.00 0.00 50 1003.2
20260505092825 50 360 5.2 10.4 0.00 0.00 0.00 49 1003.1
20260505092337 51 360 5.2 12.2 0.00 0.00 0.00 50 1002.7
20260505091827 51 360 7.0 15.6 0.00 0.00 0.00 50 1003.2
20260505091338 51 360 6.1 15.6 0.00 0.00 0.00 51 1002.8
20260505090825 51 360 5.2 11.3 0.00 0.00 0.00 52 1002.5
20260505090336 51 360 3.5 13.9 0.00 0.00 0.00 52 1002.4
20260505085825 51 360 7.0 13.9 0.00 0.00 0.00 51 1002.5
20260505085400 51 360 6.1 10.4 0.00 0.00 0.00 51 1002.2
20260505084848 52 360 3.5 10.4 0.00 0.00 0.00 50 1002.4
20260505084401 52 360 5.2 10.4 0.00 0.00 0.00 50 1002.1
20260505083828 52 360 5.2 9.6 0.00 0.00 0.00 50 1001.7
20260505083333 52 360 5.2 12.2 0.00 0.00 0.00 49 1001.7
20260505082842 53 360 7.0 12.2 0.00 0.00 0.00 50 1001.7
20260505082350 53 360 3.5 10.4 0.00 0.00 0.00 51 1001.6
20260505081840 53 360 5.2 10.4 0.00 0.00 0.00 51 1001.4
20260505081331 54 360 3.5 9.6 0.00 0.00 0.00 52 1001.3
20260505080838 54 360 3.5 7.0 0.00 0.00 0.00 51 1001.2
20260505080325 54 360 2.6 10.4 0.00 0.00 0.00 50 1001.2
20260505075834 54 360 4.3 10.4 0.00 0.00 0.00 49 1000.9
20260505075325 55 360 5.2 10.4 0.00 0.00 0.00 49 1001.0
20260505074835 55 360 6.1 10.4 0.00 0.00 0.00 48 1000.8
20260505074344 55 360 2.6 10.4 0.00 0.00 0.00 48 1000.6
20260505073852 56 360 5.2 13.0 0.00 0.00 0.00 47 1000.4
20260505073339 56 360 6.1 14.8 0.00 0.00 0.00 47 1000.5
20260505072828 56 360 7.0 14.8 0.00 0.00 0.00 46 1000.5
20260505072338 57 360 6.1 11.3 0.00 0.00 0.00 46 1000.4
20260505071827 57 360 6.1 11.3 0.00 0.00 0.00 45 1000.0
20260505071337 57 360 4.3 14.8 0.00 0.00 0.00 45 1000.0
20260505070825 57 360 6.1 14.8 0.00 0.00 0.00 44 1000.2
20260505070335 58 360 7.0 12.2 0.00 0.00 0.00 44 1000.1
20260505065825 58 5 4.3 10.4 0.00 0.00 0.00 43 999.8
20260505065357 58 360 5.2 11.3 0.00 0.00 0.00 43 999.7
20260505064824 58 360 3.5 13.0 0.00 0.00 0.00 43 999.8
20260505064335 58 360 8.7 13.0 0.00 0.00 0.00 42 999.7
20260505063822 59 360 5.2 10.4 0.00 0.00 0.00 42 999.8
20260505063334 59 360 2.6 13.0 0.00 0.00 0.00 41 999.9
20260505062823 59 360 7.0 16.5 0.00 0.00 0.00 41 999.8
20260505062333 59 5 4.3 16.5 0.00 0.00 0.00 40 999.5
20260505061822 59 360 5.2 15.6 0.00 0.00 0.00 40 999.5
20260505061333 60 360 7.0 13.9 0.00 0.00 0.00 40 999.2
20260505060841 60 360 5.2 11.3 0.00 0.00 0.00 39 999.2
20260505060353 60 360 4.3 10.4 0.00 0.00 0.00 39 999.3
20260505055841 60 360 5.2 7.8 0.00 0.00 0.00 39 999.3
20260505055330 60 360 4.3 10.4 0.00 0.00 0.00 39 999.3
20260505054839 60 360 4.3 13.0 0.00 0.00 0.00 38 999.2
20260505054350 60 360 4.3 13.0 0.00 0.00 0.00 38 999.2
20260505053836 60 360 3.5 9.6 0.00 0.00 0.00 39 999.2
20260505053328 60 360 5.2 11.3 0.00 0.00 0.00 39 999.1
20260505052839 60 360 5.2 11.3 0.00 0.00 0.00 38 999.1
20260505052328 61 360 7.0 12.2 0.00 0.00 0.00 39 999.1
20260505051831 61 360 5.2 12.2 0.00 0.00 0.00 39 999.0
20260505051323 61 360 6.1 9.6 0.00 0.00 0.00 40 998.8
20260505050831 61 360 2.6 11.3 0.00 0.00 0.00 41 998.7
20260505050342 61 360 6.1 11.3 0.00 0.00 0.00 40 998.5
20260505041332 64 360 5.2 16.5 0.00 0.00 0.00 40 998.2
20260505040839 64 360 5.2 17.4 0.00 0.00 0.00 40 998.0
20260505040329 64 360 7.8 17.4 0.00 0.00 0.00 39 998.0
20260505035840 64 360 7.0 12.2 0.00 0.00 0.00 41 997.9
20260505035332 64 360 3.5 7.8 0.00 0.00 0.00 42 997.7
20260505034843 65 360 5.2 7.8 0.00 0.00 0.00 41 997.7
20260505034356 65 360 2.6 5.2 0.00 0.00 0.00 40 997.7
20260505033823 66 360 2.6 7.0 0.00 0.00 0.00 40 997.5
20260505033359 66 360 2.6 8.7 0.00 0.00 0.00 39 997.4
20260505032848 66 360 5.2 8.7 0.00 0.00 0.00 39 997.4
20260505032357 67 229 2.6 9.6 0.00 0.00 0.00 39 997.4
20260505031826 67 360 3.5 10.4 0.00 0.00 0.00 40 997.3
20260505031337 66 360 5.2 10.4 0.00 0.00 0.00 45 997.2
20260505030844 66 360 3.5 7.0 0.00 0.00 0.00 48 997.3
20260505030333 66 360 2.6 5.2 0.00 0.00 0.00 52 997.3
20260505025841 66 360 1.7 5.2 0.00 0.00 0.00 56 997.3
20260505025329 66 360 1.7 7.0 0.00 0.00 0.00 60 997.1
20260505024840 66 360 4.3 10.4 0.00 0.00 0.00 62 997.2
20260505024331 66 360 7.0 12.2 0.00 0.00 0.00 63 997.0
20260505023839 65 360 7.8 12.2 0.00 0.00 0.00 64 997.0
20260505023329 65 360 4.3 10.4 0.00 0.00 0.00 65 996.7
20260505022840 66 360 6.1 11.3 0.00 0.00 0.00 66 996.4
20260505022328 66 360 9.6 12.2 0.00 0.00 0.00 66 996.4
20260505021900 66 360 7.8 12.2 0.00 0.00 0.00 67 996.2
20260505021348 66 360 8.7 11.3 0.00 0.00 0.00 67 996.4
20260505020855 66 360 5.2 12.2 0.00 0.00 0.00 67 996.2
20260505020343 66 360 6.1 12.2 0.00 0.00 0.00 67 996.0
20260505015833 66 360 6.1 10.4 0.00 0.00 0.00 66 995.8
20260505015322 66 360 6.1 13.9 0.00 0.00 0.00 65 995.8
20260505014831 66 360 7.8 13.9 0.00 0.00 0.00 65 995.3
20260505014341 67 360 6.1 9.6 0.00 0.00 0.00 64 995.4
20260505013828 67 360 7.0 11.3 0.00 0.00 0.00 63 995.3
20260505013334 67 360 7.8 13.9 0.00 0.00 0.00 62 995.0
20260505012822 68 360 6.1 13.9 0.00 0.00 0.00 60 995.0
20260505012332 68 360 9.6 15.6 0.00 0.00 0.00 59 995.0
20260505011841 68 360 8.7 16.5 0.00 0.00 0.00 56 994.9
20260505011333 69 360 10.4 15.6 0.00 0.00 0.00 55 995.0
20260505010841 69 360 7.8 13.9 0.00 0.00 0.00 54 994.9
20260505010332 69 360 9.6 14.8 0.00 0.00 0.00 53 995.0
20260505005822 70 360 7.8 14.8 0.00 0.00 0.00 51 995.0
20260505005333 71 360 8.7 11.3 0.00 0.00 0.00 49 994.7
20260505004824 71 360 6.1 8.7 0.00 0.00 0.00 46 994.4
20260505004336 71 360 4.3 8.7 0.00 0.00 0.00 46 994.1
20260505003824 71 360 5.2 10.4 0.00 0.00 0.00 45 993.9
20260505003326 72 360 7.0 10.4 0.00 0.00 0.00 44 993.9
20260505002835 72 360 7.8 12.2 0.00 0.00 0.00 43 993.9
20260505002325 72 360 7.8 18.2 0.00 0.00 0.00 42 993.7